Notices

INTERRUPTION IN DATA AVAILABILITY. Due to scheduled maintenance, the data ingest to the Climate website database will be suspended from September 22nd at 4 pm to September 23rd at 8 am EST. The Climate website will still be operational during that period. Do not hesitate to contact us at ec.services.climatiques-climate.services.ec@canada.ca if you have any further questions or concerns.

Hourly Data Report for May 18, 2017

All times are specified in Local Standard Time (LST). Add 1 hour to adjust for Daylight Saving Time where and when it is observed.

THUNDER BAY CS
ONTARIO

48°22'10.000" N
89°19'38.000" W
199.40 m
6048268
71667
ZTB

Download Data

Hourly Data (May 2017)
Hourly Data Report for May 18, 2017
Temp Definition
°C
Dew Point Temp Definition
°C
Rel Hum Definition
%
Wind Dir Definition
10's deg

Wind Spd Definition
km/h
Visibility Definition
km
Stn Press Definition
kPa
Hmdx Definition


Wind Chill Definition


Weather Definition


TIME
00:00 7.9 5.6 86 4 24   98.27     LegendNANA
01:00 7.4 5.1 85 3 20   98.21     LegendNANA
02:00 6.5 4.5 87 3 28   98.20     LegendNANA
03:00 5.2 3.7 90 3 21   98.18     LegendNANA
04:00 4.6 2.8 88 3 29   98.24     LegendNANA
05:00 3.9 2.6 91 2 20   98.39     LegendNANA
06:00 3.3 2.0 91 2 21   98.53     LegendNANA
07:00 3.2 1.8 90 1 19   98.55     LegendNANA
08:00 2.7 0.8 87 1 23   98.63     LegendNANA
09:00 2.6 0.8 88 1 17   98.74     LegendNANA
10:00 2.8 0.4 84 1 22   98.85     LegendNANA
11:00 4.1 0.6 78 36 13   98.96     LegendNANA
12:00 7.0 0.6 64 1 25   99.00     LegendNANA
13:00 9.7 -0.5 49 2 24   99.04     LegendNANA
14:00
15:00
16:00
17:00
18:00 13.2 -6.9 24 2 19   99.45     LegendNANA
19:00 12.4 -6.4 26 4 19   99.51     LegendNANA
20:00 11.1 -5.4 31 5 10   99.59     LegendNANA
21:00 8.1 -5.2 39 6 12   99.69     LegendNANA
22:00 4.1 -2.2 63 0 1   99.75     LegendNANA
23:00 0.7 -1.7 84 31 8   99.80     LegendNANA

Notes on Data Quality.

Legend

  • E = Estimated
  • M = Missing
  • NA = Not Available
  • ‡ = Partner data that is not subject to review by the National Climate Archives
Date modified: